Aeroporto :
LOGIN :

Iscrizione | Disclaimer

   EN    FR    IT 

 










Sommario :    VFR   VFR Marginale   IFR   IFR Intensivo   IFR Molto Intensivo
Visibilità : 
Base nubi : 
>= 8 km
>= 3000ft
5 / 8 km
1000 / 3000 ft
1500m / 5 km
500 / 1000 ft
800 / 1500m
200 / 500 ft
< 800m
< 200 ft
Simboli :   Temporali  Nebbia  Neve Forte  Precipitazioni Forti  Vento > 20 kt
SIGMETs :   Varie  Temporali  Ghiacco  Turbolenza  Onda orograficha  Ceneri Vulcaniche






- Altitudine del aeroporto : 1339 ft


ETHN - Niederstetten

ULTIMO METAR :
  • 141220Z 23011KT 9999 BKN025 BKN080 16/10 Q1013 BLU BLU TEMPO WHT

METARs OBSOLETI :
  • 141120Z 20010KT 9999 SCT028 BKN080 16/09 Q1013 BLU BLU TEMPO WHT
  • 141020Z 19008KT 9999 FEW040 BKN070 15/09 Q1013 BLU BLU
  • 140920Z 18006KT 9999 FEW040 OVC050 14/10 Q1013 BLU BLU

TAF TAF ETHN
Valido dal 14 a 11 ore il 14 a 20 ore UTC


141000Z 1411/1420 22010KT 9999 NSW FEW020 BKN050
TEMPO 1411/1420 22012G22KT 9999 NSW BKN020



MetMap, La meteo Aeronautica in un colpo d'occhio ! - Copyright ORBIFLY Dicembre 2007 - Disclaimer

ORBIFLY MET'MAP TEAM :

Programmazione e sviluppo : Alexandra Zaïnal
Concezione : Baudouin d'Aumeries
Supporto tecnico e logistico : Manuel Goepfert
Aiuto : Marc-Olivier Méhu
Aiuto per la traduzione : Arnaldo La Scala




FONTI E CREDITI :

   NOAA